Preview of NWS' New Version of Forecast
This preview is not operational and should not be used for support decisions.

Regional Weather Roundup (RWR)

Issued by National Weather Service (NWS)

                            
000
ASUS45 KBOI 190910
RWRID 

IDAHO REGIONAL WEATHER ROUNDUP
NATIONAL WEATHER SERVICE BOISE ID
300 AM MDT FRI APR 19 2019

NOTE: "FAIR" INDICATES FEW OR NO CLOUDS BELOW 12000 FEET
WITH NO SIGNIFICANT WEATHER AND/OR OBSTRUCTIONS TO VISIBILITY

IDZ012-014-191000-
SOUTHWEST IDAHO

  
CITY           SKY/WX    TMP DP  RH WIND       PRES   REMARKS
BOISE          CLEAR     56  38  50 E13       30.11F                  
CALDWELL       CLEAR     50  42  74 E6        30.10F                  
MOUNTAIN HOME  CLEAR     46  42  85 CALM      30.13F                  
$$

IDZ016-017-191000-
SOUTHCENTRAL IDAHO

  
CITY           SKY/WX    TMP DP  RH WIND       PRES   REMARKS
BURLEY         CLEAR     49  36  61 CALM      30.17F                  
JEROME         CLEAR     52  36  54 SE6       30.18F                  
TWIN FALLS     CLEAR     46  37  71 S12       30.18F                  
$$

IDZ019>023-191000-
SOUTHEAST IDAHO

  
CITY           SKY/WX    TMP DP  RH WIND       PRES   REMARKS
IDAHO FALLS    CLEAR     43  34  70 SW6       30.21F                  
POCATELLO      CLEAR     46  34  62 CALM      30.20F                  
REXBURG        CLEAR     42  33  70 N5        30.21R                  
$$

IDZ006-010-011-018-031-032-191000-
CENTRAL IDAHO MOUNTAINS

  
CITY           SKY/WX    TMP DP  RH WIND       PRES   REMARKS
MCCALL         CLEAR     34  29  82 CALM      30.18F                  
HAILEY         CLEAR     43  32  65 NW14G20   30.24F                  
STANLEY          N/A     30  24  78 CALM      30.29F                  
SALMON         CLEAR     42  37  82 CALM      30.17F                  
CHALLIS        CLEAR     43  30  60 CALM      30.21F                  
$$

IDZ002-004-006-007-026-191000-
NORTHERN IDAHO

  
CITY           SKY/WX    TMP DP  RH WIND       PRES   REMARKS
LEWISTON       PTCLDY    55  47  74 CALM      30.02F                  
LOWELL           N/A     47  45  93 N5        30.11                   
COEUR D'ALENE  MOCLDY    54  46  74 S8        30.00                   
MULLAN PASS    LGT RAIN  45  38  76 SW6       30.10F                  
$$